www.pogodaiklimat.ru

Погода и климат >> Архив погоды >> Норвегия >> Utsira Fyr


ПОГОДА в Utsira Fyr

  • Прогноз погоды в Utsira Fyr
  • Монитор погоды в Utsira Fyr
  • Климат города

АРХИВ ПОГОДЫ в Utsira Fyr

Время (UTC), дата Ветер
(напр.,м/с)
 
Видим.   Явления Облачность Т
(С)
Тd
(С)
f
(%)
Тe
(С)
Тes
(С)
Комфортность P
(гПа)
Po
(гПа)
Тmin
(С)
Tmax
(С)
R
(мм)
R24
(мм)
S
(см)
17 11.10 ЮВ 9
{16}
н/о н/о +14.7 +10.7 77 +12 +12 1010.6 1003.9
16 11.10 Ю 10
{14}
н/о н/о +14.9 +10.9 77 +12 +12 1010.4 1003.7
18 11.10 ЮВ 10
{17}
15 км 6/0
[Ac trans Cc]
+15.3 +9.9 70 +13 +13 1011.0 1004.3 +12.7 +18.1
19 11.10 Ю 8
{14}
н/о н/о +14.2 +10.4 78 +12 +12 1011.5 1004.8
20 11.10 ЮВ 8
{12}
н/о н/о +13.8 +10.6 81 +11 +11 1011.4 1004.7
21 11.10 Ю 11
{14}
20 км 4/0
[Ac trans]
+14.2 +10.6 79 +11 +11 1011.5 1004.8
23 11.10 Ю 13
{17}
н/о н/о +14.7 +10.5 76 +12 +12 1011.3 1004.6
22 11.10 Ю 10
{14}
н/о н/о +14.2 +10.6 79 +11 +11 1011.6 1004.9
00 12.10 ЮВ 13
{18}
н/о н/о +14.8 +10.4 75 +12 +12 1011.0 1004.3
01 12.10 ЮВ 11
{19}
н/о н/о +15.0 +10.2 73 +12 +12 1010.7 1004.0
02 12.10 ЮВ 12
{16}
н/о н/о +15.1 +9.9 71 +12 +12 1009.8 1003.1
03 12.10 ЮВ 10
{15}
н/о н/о +14.8 +9.6 71 +12 +12 1009.1 1002.4
05 12.10 ЮВ 9
{13}
н/о н/о +14.9 +9.7 71 +13 +13 1008.7 1002.0
04 12.10 ЮВ 9
{14}
н/о н/о +15.0 +9.8 71 +13 +13 1009.1 1002.4
06 12.10 ЮВ 11
{19}
20 км 8/5 600 м
[Sc Ac As Cs]
+14.9 +9.9 72 +12 +12 1008.2 1001.5 +13.8 +15.3
07 12.10 н/о
08 12.10 Ю 11
{17}
н/о н/о +14.9 +10.7 76 +12 +12 1008.1 1001.4
09 12.10 ЮВ 13
{18}
7000 м дымка 9/5 1000 м
[Sc Ac As]
+14.7 +11.3 80 +12 +12 1007.8 1001.1
11 12.10 Ю 18
{25}
н/о н/о +13.8 +12.0 89 +10 +10 1008.3 1001.6 0.1
10 12.10 Ю 15
{21}
н/о н/о +14.4 +11.9 85 +11 +11 1008.3 1001.6 1
12 12.10 Ю 15
{25}
5000 м дымка {дождь} 10/10 200 м
[St]
+13.8 +12.0 89 +10 +10 1008.8 1002.1
13 12.10 Ю 16
{23}
н/о н/о +13.8 +11.9 88 +10 +10 1008.9 1002.2
14 12.10 Ю 15
{22}
н/о н/о +13.7 +11.8 88 +10 +10 1009.6 1002.9
15 12.10 Ю 15
{23}
6000 м дымка 10/10 200 м
[St]
+13.7 +11.9 89 +10 +10 1008.8 1002.1
17 12.10 Ю 18
{24}
н/о н/о +13.4 +12.0 91 +9 +9 1007.0 1000.3 2
16 12.10 Ю 15
{22}
н/о н/о +13.5 +11.9 90 +10 +10 1008.4 1001.7 0.4
18 12.10 Ю 21
{28}
5000 м слабый дождь 10/9 200 м
[Frnb As op]
+13.5 +11.6 88 +9 +9 1005.8 999.1 +13.4 +15.4 2
19 12.10 Ю 22
{30}
н/о н/о +13.6 +11.5 87 +9 +9 1005.3 998.6 1
20 12.10 Ю 20
{31}
н/о н/о +13.3 +11.7 90 +9 +9 1005.3 998.6 1
21 12.10 Ю 19
{30}
3000 м дождь 10/9 200 м
[Frnb As op]
+13.3 +11.9 91 +9 +9 1005.1 998.4 3
23 12.10 Ю 17
{24}
н/о н/о +13.8 +11.5 86 +10 +10 1004.9 998.2 2
22 12.10 Ю 19
{27}
н/о н/о +13.6 +11.8 89 +9 +9 1005.0 998.3 4
00 13.10 Ю 17
{31}
н/о н/о +13.8 +12.0 89 +10 +10 1004.9 998.2 1
01 13.10 Ю 16
{21}
н/о н/о +14.0 +12.4 90 +10 +10 1004.9 998.2 2
02 13.10 Ю 15
{23}
н/о н/о +14.1 +12.7 91 +11 +11 1005.2 998.5 2
03 13.10 Ю 14
{23}
н/о н/о +13.9 +12.5 91 +10 +10 1006.0 999.3 1
05 13.10 Ю 10
{15}
н/о н/о +13.5 +12.1 91 +10 +10 1006.9 1000.2 0.1
04 13.10 ЮЗ 13 н/о н/о +13.8 +12.4 91 +10 +10 1006.2 999.5 1
06 13.10 ЮЗ 10
{23}
6000 м слабый дождь 10/9 200 м
[Frnb As op]
+13.3 +12.0 92 +10 +10 1008.0 1001.3 +13.2 +14.3 1
07 13.10 Ю 7
{14}
н/о н/о +12.9 +11.8 93 +10 +10 1007.8 1001.1 2
08 13.10 Ю 7
{10}
н/о н/о +12.9 +12.0 94 +10 +10 1008.3 1001.6 2
09 13.10 Ю 6
{10}
1500 м дождь {туман} 10/9 <50 м
[Frnb As op]
+12.8 +12.0 95 +10 +10 1007.8 1001.1 4
11 13.10 Ю 8
{11}
н/о н/о +12.8 +12.0 95 +10 +10 1007.6 1000.9 3
10 13.10 Ю 8
{12}
н/о н/о +12.8 +12.0 95 +10 +10 1008.3 1001.6 6
12 13.10 Ю 13
{16}
1200 м сильный дождь {туман} 10/9 <50 м
[Frnb As op]
+13.1 +12.3 95 +9 +9 1006.7 1000.0 5
13 13.10 Ю 13
{16}
н/о н/о +13.3 +12.5 95 +10 +10 1006.0 999.3 3
14 13.10 Ю 15
{20}
н/о н/о +13.7 +12.9 95 +10 +10 1005.2 998.5 2
15 13.10 Ю 15
{21}
5000 м слабый дождь 10/8 300 м
[Frnb As op]
+14.2 +12.9 92 +11 +11 1004.8 998.1 0.8
17 13.10 Ю 16
{22}
н/о н/о +14.6 +12.3 86 +11 +11 1004.8 998.1
16 13.10 Ю 15
{20}
н/о н/о +14.3 +12.5 89 +11 +11 1004.7 998.0 0.2
18 13.10 Ю 15
{22}
10 км {дождь} 10/9 1000 м
[Sc]
+14.4 +12.3 87 +11 +11 1005.0 998.3 +12.8 +14.7
19 13.10 Ю 15
{21}
н/о н/о +14.5 +12.4 87 +11 +11 1004.9 998.2
20 13.10 Ю 14
{21}
н/о н/о +14.3 +12.3 88 +11 +11 1005.2 998.5
21 13.10 Ю 15
{20}
8000 м дымка {дождь} 10/9 1000 м
[Sc]
+14.3 +12.7 90 +11 +11 1005.1 998.4
23 13.10 Ю 13
{18}
н/о н/о +14.8 +13.0 89 +12 +12 1004.3 997.6
22 13.10 Ю 11
{20}
н/о н/о +14.0 +12.4 90 +11 +11 1005.2 998.5
00 14.10 Ю 14
{21}
н/о н/о +15.0 +13.0 88 +12 +12 1003.8 997.2
01 14.10 Ю 13
{18}
н/о н/о +14.7 +12.7 88 +12 +12 1003.7 997.0
02 14.10 Ю 14
{19}
н/о н/о +14.6 +12.6 88 +11 +11 1003.3 996.6
03 14.10 Ю 14
{18}
н/о н/о +14.6 +12.6 88 +11 +11 1003.5 996.8
05 14.10 Ю 12
{17}
н/о н/о +14.3 +12.7 90 +11 +11 1003.7 997.0
04 14.10 Ю 13
{18}
н/о н/о +14.3 +12.5 89 +11 +11 1003.4 996.7
06 14.10 Ю 12
{19}
10 км 10/9 600 м
[Sc]
+14.3 +12.7 90 +11 +11 1003.9 997.2 +14.0 +15.0
07 14.10 Ю 12
{17}
н/о н/о +14.3 +12.7 90 +11 +11 1004.3 997.6
08 14.10 Ю 12
{16}
н/о н/о +14.1 +12.7 91 +11 +11 1005.3 998.6
09 14.10 Ю 10
{15}
8000 м дымка {дождь} 10/10 300 м
[St]
+13.9 +12.5 91 +11 +11 1005.4 998.7
11 14.10 ЮЗ 7
{11}
н/о н/о +12.9 +12.0 94 +10 +10 1005.9 999.2 0.9
10 14.10 Ю 8
{13}
н/о н/о +13.4 +12.3 93 +11 +11 1005.3 998.6 0.6
12 14.10 З 8
{17}
4000 м дождь 10/5 100 м
[Frnb As op]
+11.0 +10.1 94 +7 +7 1006.3 999.5 2
13 14.10 СЗ 5
{9}
н/о н/о +10.8 +9.9 94 +8 +8 1006.1 999.3 0.5
14 14.10 СЗ 7
{9}
н/о н/о +10.5 +9.4 93 +7 +7 1006.4 999.6 0.7
15 14.10 С 8
{10}
6000 м слабый дождь 10/8 200 м
[Frnb As op]
+9.8 +8.6 92 +6 +6 1006.5 999.7 3
17 14.10 С 7
{10}
н/о н/о +9.8 +8.6 92 +6 +6 1006.5 999.7
16 14.10 С 8
{10}
н/о н/о +9.9 +8.7 92 +6 +6 1006.2 999.4 0.4
18 14.10 С 11
{13}
5000 м дождь 10/9 200 м
[Frnb As op]
+9.5 +8.1 91 +4 +4 1007.4 1000.6 +9.5 +14.5 4
19 14.10 СЗ 12
{15}
н/о н/о +8.6 +6.9 89 +3 +3 1008.6 1001.8 2
20 14.10 С 12
{14}
н/о н/о +8.4 +6.7 89 +3 +3 1009.8 1003.0 3
21 14.10 12
{14}
6000 м слабый дождь 10/9 200 м
[Frnb As op]
+8.4 +6.2 86 1009.6 1002.8 0.8
23 14.10 С 8
{11}
н/о н/о +9.0 +6.6 85 +5 +5 1010.1 1003.3
22 14.10 С 8
{12}
н/о н/о +8.7 +6.2 84 +4 +4 1009.9 1003.1
00 15.10 С 11
{15}
н/о н/о +8.7 +6.3 85 +3 +3 1010.4 1003.6
01 15.10 С 9
{13}
н/о н/о +8.9 +5.8 81 +4 +4 1010.8 1004.0
02 15.10 С 9
{12}
н/о н/о +8.9 +6.2 83 +4 +4 1011.1 1004.3
03 15.10 С 9
{12}
н/о н/о +9.0 +6.1 82 +4 +4 1011.4 1004.6
05 15.10 С 9
{12}
н/о н/о +9.0 +6.1 82 +4 +4 1012.3 1005.5
04 15.10 С 10 н/о н/о +9.1 +6.0 81 +4 +4 1011.6 1004.8
06 15.10 С 8
{13}
15 км {дождь} 8/5 600 м
[Sc Cs]
+9.1 +6.0 81 +5 +5 1012.4 1005.6 +8.0 +9.5
07 15.10 С 7
{11}
н/о н/о +9.1 +6.0 81 +5 +5 1013.2 1006.4
08 15.10 С 7
{11}
н/о н/о +9.1 +5.7 79 +5 +5 1013.6 1006.7
09 15.10 С 7
{9}
25 км 9/3 600 м
[Sc Ac As Cs]
+9.3 +6.0 80 +5 +5 1013.8 1007.0
11 15.10 С 5
{7}
н/о н/о +10.0 +5.6 74 +7 +7 1015.0 1008.2
10 15.10 С 5
{8}
н/о н/о +9.8 +6.2 78 +7 +7 1014.5 1007.7
12 15.10 С 5
{11}
40 км 8/3 600 м
[Sc Ac As Cc]
+10.5 +5.7 72 +8 +8 1015.1 1008.3
13 15.10 С 5
{6}
н/о н/о +10.1 +5.9 75 +7 +7 1015.5 1008.7
14 15.10 С 4
{6}
н/о н/о +10.2 +6.4 77 +8 +8 1015.6 1008.8
15 15.10 СЗ 4
{5}
40 км 9/4 600 м
[Sc Ac As Cs]
+10.1 +6.3 77 +8 +8 1015.5 1008.7
17 15.10 СЗ 3
{5}
н/о н/о +9.3 +5.5 77 +7 +7 1016.0 1009.1
16 15.10 СЗ 3
{4}
н/о н/о +9.8 +6.2 78 +8 +8 1015.8 1009.0
18 15.10 СЗ 3
{6}
30 км 4/1 600 м
[St Cs]
+8.8 +5.2 78 +6 +6 1016.3 1009.4 +8.8 +10.9
19 15.10 С 2
{4}
н/о н/о +8.5 +5.1 79 +7 +7 1016.4 1009.5
20 15.10 СЗ 2
{3}
н/о н/о +8.1 +5.1 81 +6 +6 1017.0 1010.1
21 15.10 СЗ 3
{3}
25 км ясно +7.9 +4.9 81 +5 +5 1017.4 1010.5
23 15.10 СЗ 2
{4}
н/о н/о +7.9 +5.4 84 +6 +6 1017.4 1010.5
22 15.10 СЗ 3
{4}
н/о н/о +7.9 +5.0 82 +5 +5 1017.5 1010.6
00 16.10 С 2
{4}
н/о н/о +8.1 +5.6 84 +6 +6 1017.3 1010.4
01 16.10 СВ 1
{3}
н/о н/о +7.9 +5.2 83 +7 +7 1017.4 1010.5
02 16.10 В 2
{2}
н/о н/о +7.7 +5.2 84 +6 +6 1016.8 1009.9
03 16.10 ЮВ 3
{4}
н/о н/о +7.8 +5.6 86 +5 +5 1016.8 1009.9
05 16.10 ЮВ 3
{3}
н/о н/о +7.7 +5.5 86 +5 +5 1016.2 1009.3
04 16.10 В 2
{3}
н/о н/о +7.7 +5.5 86 +6 +6 1016.4 1009.5
06 16.10 ЮВ 3
{4}
25 км 5/0
[]
+7.3 +5.0 85 +4 +4 1016.1 1009.2 +7.3 +8.8
07 16.10 ЮВ 4
{5}
н/о н/о +8.0 +6.0 87 +5 +5 1016.2 1009.3
08 16.10 ЮВ 5
{7}
н/о н/о +8.3 +6.4 88 +5 +5 1015.7 1008.8
09 16.10 ЮВ 6
{8}
40 км 5/0
[Ac trans Ci sp]
+8.8 +6.9 88 +5 +5 1015.4 1008.5
11 16.10 Ю 12
{16}
н/о н/о +11.5 +7.2 75 +7 +7 1014.5 1007.7
10 16.10 Ю 8
{11}
н/о н/о +10.3 +6.3 76 +6 +6 1015.2 1008.4
12 16.10 Ю 14
{18}
30 км 8/3 600 м
[Cu hum Ac trans Cs]
+11.7 +8.2 79 +7 +7 1014.3 1007.5
13 16.10 Ю 14
{18}
н/о н/о +11.8 +8.7 81 +7 +7 1014.1 1007.3
14 16.10 Ю 14
{18}
н/о н/о +11.8 +8.3 79 +7 +7 1013.8 1007.0
15 16.10 Ю 14
{18}
20 км 9/5 300 м
[Sc Ac As]
+11.6 +7.7 77 +7 +7 1013.0 1006.2
17 16.10 Ю 13
{19}
н/о н/о +11.4 +5.9 69 +7 +7 1012.6 1005.8
16 16.10 Ю 13
{19}
н/о н/о +11.5 +7.0 74 +7 +7 1012.5 1005.7
18 16.10 Ю 14
{20}
15 км 10/9 600 м
[Sc]
+11.4 +4.9 64 +7 +7 1012.0 1005.2 +7.3 +12.0 0.3
19 16.10 Ю 15
{21}
н/о н/о +10.7 +7.4 80 +6 +6 1011.8 1005.0 0.6
20 16.10 Ю 14
{21}
н/о н/о +10.7 +9.1 90 +6 +6 1011.6 1004.8
21 16.10 Ю 15
{20}
5000 м слабый дождь 10/5 300 м
[Frnb As op]
+11.4 +10.3 93 +7 +7 1011.3 1004.5 0.9
23 16.10 Ю 11
{17}
н/о н/о +12.2 +11.3 94 +8 +8 1011.1 1004.3 2
22 16.10 Ю 13
{19}
н/о н/о +12.0 +10.9 93 +8 +8 1011.1 1004.3 0.6
00 17.10 Ю 10
{21}
н/о н/о +12.0 +11.1 94 +8 +8 1010.9 1004.1 0.3
01 17.10 ЮЗ 9
{13}
н/о н/о +12.0 +11.1 94 +8 +8 1010.7 1003.9
02 17.10 ЮЗ 9
{13}
н/о н/о +12.0 +11.1 94 +8 +8 1010.6 1003.8 2
03 17.10 ЮЗ 9
{12}
н/о н/о +11.7 +10.8 94 +8 +8 1010.7 1003.9 2
05 17.10 ЮЗ 9
{13}
н/о н/о +11.8 +10.6 92 +8 +8 1010.9 1004.1
04 17.10 ЮЗ 10
{13}
н/о н/о +11.7 +10.8 94 +8 +8 1010.8 1004.0 0.5
06 17.10 ЮЗ 9
{13}
15 км {дождь} 9/9 600 м
[Sc]
+12.1 +11.0 93 +9 +9 1011.3 1004.5 +10.5 +12.2
07 17.10 ЮЗ 7 н/о н/о +11.9 +10.8 93 +9 +9 1011.5 1004.7
08 17.10 ЮЗ 8
{11}
н/о н/о +12.0 +10.6 91 +9 +9 1012.1 1005.3
09 17.10 ЮЗ 8
{11}
15 км 9/9 300 м
[Sc]
+12.0 +10.6 91 +9 +9 1013.0 1006.2
11 17.10 ЮЗ 7
{9}
н/о н/о +12.2 +10.4 89 +9 +9 1014.2 1007.4
10 17.10 ЮЗ 7
{11}
н/о н/о +11.9 +10.2 89 +9 +9 1013.6 1006.8
12 17.10 З 7
{11}
20 км 9/8 300 м
[Cu med, cong Ci sp]
+12.0 +10.3 89 +9 +9 1014.6 1007.8
13 17.10 З 7
{9}
н/о н/о +12.1 +10.4 89 +9 +9 1015.2 1008.4
14 17.10 З 7
{9}
н/о н/о +11.8 +6.9 72 +9 +9 1015.9 1009.1
15 17.10 З 6
{8}
30 км 3/1 600 м
[Cu med, cong Ci sp]
+11.7 +7.6 76 +9 +9 1016.4 1009.6
17 17.10 З 6
{8}
н/о н/о +10.6 +5.6 71 +8 +8 1017.5 1010.7
16 17.10 З 6
{8}
н/о н/о +10.9 +5.9 71 +8 +8 1016.8 1010.0
18 17.10 З 6
{9}
30 км 4/1 600 м
[St Ac trans Ci sp]
+10.2 +5.2 71 +7 +7 1018.3 1011.4 +10.2 +12.3
19 17.10 З 6
{8}
н/о н/о +10.4 +6.2 75 +7 +7 1019.0 1012.1
20 17.10 З 7
{9}
н/о н/о +10.2 +6.0 75 +7 +7 1019.6 1012.7
21 17.10 З 7
{9}
30 км 1/1 600 м
[Cu hum]
+10.1 +5.7 74 +7 +7 1020.2 1013.3
23 17.10 З 8
{10}
н/о н/о +10.2 +6.2 76 +6 +6 1020.7 1013.8
22 17.10 З 7
{10}
н/о н/о +10.1 +5.9 75 +6 +6 1020.5 1013.6
00 18.10 З 10
{12}
н/о н/о +10.0 +6.0 76 +6 +6 1021.0 1014.1
01 18.10 З 9
{12}
н/о н/о +10.0 +6.0 76 +6 +6 1021.1 1014.2
02 18.10 СЗ 8
{11}
н/о н/о +9.3 +5.9 79 +5 +5 1021.4 1014.5 0.2
03 18.10 СЗ 9
{12}
н/о н/о +9.5 +5.3 75 +5 +5 1021.8 1014.9
05 18.10 СЗ 9
{13}
н/о н/о +9.6 +5.2 74 +5 +5 1022.4 1015.5
04 18.10 СЗ 8
{12}
н/о н/о +9.4 +4.6 72 +5 +5 1022.0 1015.1
06 18.10 З 11
{14}
20 км 6/5 600 м
[Sc Ac As Ci fib]
+9.5 +4.7 72 +5 +5 1023.0 1016.1 +9.2 +10.4
07 18.10 СЗ 7
{12}
н/о н/о +9.4 +3.4 66 +6 +6 1023.5 1016.6
08 18.10 СЗ 8
{11}
н/о н/о +10.0 +5.2 72 +6 +6 1024.0 1017.1
09 18.10 СЗ 7
{11}
30 км {ливн. осадки} 6/4 600 м
[Cu med, cong Ac As Ci fib]
+10.1 +5.5 73 +7 +7 1024.5 1017.6 0.1
11 18.10 З 6
{8}
н/о н/о +10.6 +5.2 69 +8 +8 1025.2 1018.3
10 18.10 СЗ 5
{10}
н/о н/о +9.9 +5.7 75 +7 +7 1024.8 1017.9
12 18.10 З 8
{12}
25 км {ливн. осадки} 8/6 600 м
[Sc Ac As]
+9.9 +5.3 73 +6 +6 1025.1 1018.2
13 18.10 С 3
{9}
н/о н/о +9.8 +6.0 77 +8 +8 1025.4 1018.5 0.1
14 18.10 З 3
{4}
н/о н/о +9.9 +5.7 75 +8 +8 1025.3 1018.4

 

Местоположение метеостанции Utsira Fyr (Норвегия): широта 59.31 долгота 4.88 высота над уровнем моря 55 м.

В архиве по умолчанию представлена погода в Utsira Fyr за последнюю неделю. Архивные данные за месяц целиком и за предыдущие месяцы, начиная с января 2011 года, Вы можете получить, выбрав интересующий диапазон дат из раскрывающегося списка и нажав кнопку "Ввод!".


*Определитесь, кто Вы:
робот инопланетянин человек

Внимание! Время в таблицах - всемирное. Для получения местного времени необходимо прибавить поправку, которая в Utsira Fyr равна 1 ч.

Смотрите также архив погоды в соседних городах и на ближайших метеорологических станциях:

Погода в Rovaer (Норвегия) (18 км)
Погода в Haugesund Lufthavn (Норвегия) (19 км)
Погода в Kvitsoy (Норвегия) (41 км)
Погода в Vats I Vindafjord (Норвегия) (52 км)
Погода в Stavanger (Норвегия) (62 км)
Погода в Stavanger Lufthavn (Норвегия) (65 км)
Погода в Fister-Sigmundstad (Норвегия) (67 км)
Погода в Slatteroy Fyr (Норвегия) (68 км)
Погода в Saerheim (Норвегия) (75 км)
Погода в Liarvatn (Норвегия) (76 км)

Пояснения к столбцам:

Ветер - указаны скорость ветра в м/с - средняя за 10 мин, порывы в срок и между сроками (в фигурных скобках) и направление, откуда дует ветер: С - северный, СВ - северо-восточный, В - восточный, ЮВ - юго-восточный, Ю - южный, ЮЗ - юго-западный, З - западный, СЗ - северо-западный.
Видимость - горизонтальная дальность видимости в метрах или километрах. При видимости от 1 до 10 км при отсутствии осадков обычно наблюдается дымка, при ухудшении видимости до 1 км и менее - туман. В сухую погоду видимость может ухудшаться дымом, пылью или мглою.
Явления - указаны атмосферные явления, наблюдавшиеся в срок или в последний час перед сроком; фигурными скобками обозначены явления, наблюдавшиеся между сроками (за 1-3 часа до срока); квадратными скобками обозначены град или гололедные отложения с указанием их диаметра в мм.
Облачность - указаны через наклонную черту общая и нижняя облачность в баллах и высота нижней границы облаков в метрах; квадратными скобками обозначены формы облаков: Ci - перистые, Cs - перисто-слоистые, Cc - перисто-кучевые, Ac - высококучевые, As - высокослоистые, Sc - слоисто-кучевые, Ns - слоисто-дождевые, Cu - кучевые, Cb - кучево-дождевые. Подробнее классификацию облаков см. в Атласе облаков (PDF).
T - Температура воздуха - температура, измеренная на высоте 2 м над землей.
Td - Температура точки росы - температура, при понижении до которой содержащийся в воздухе водяной пар достигнет насыщения.
f - Относительная влажность воздуха - влажноcть воздуха, измеренная на высоте 2 м над землей.
Te - Эффективная температура - температура, которую ощущает одетый по сезону человек в тени. Характеристика душности погоды. При расчете учитывается влияние влажности воздуха и скорости ветра на теплоощущения человека.
Tes - Эффективная температура на солнце - температура, которую ощущает человек, с поправкой на солнечный нагрев. Характеристика знойности погоды. Зависит от высоты солнца над горизонтом, облачности и скорости ветра. Ночью, в пасмурную погоду, а также при ветре 12 м/с и более поправка равна нулю.
P - Атмосферное давление - приведенное к уровню моря атмосферное давление.
Po - Атмосферное давление - измеренное на уровне метеостанции атмосферное давление.
Tmin - Минимальная температура - минимум температуры воздуха на высоте 2 м над землей.
Tmax - Максимальная температура - максимум температуры воздуха на высоте 2 м над землей.
R - Количество осадков - Количество выпавших осадков за период времени, мм. При наведении курсора мыши на число - период времени, за который выпало указанное количество осадков.
R24 - Количество осадков - Количество выпавших осадков за 24 часа, мм.
S - Снежный покров - Высота снежного покрова, см. При наведении курсора мыши на число - состояние снежного покрова и степень покрытия местности в баллах.